Regional Weather Roundup
Issued by NWS

Home | Current Version | Previous Version | Graphics & Text | Print | Product List | Glossary On
Versions: 1 2 3 4 5 6 7 8 9 10 11 12 13 14 15 16 17 18 19 20 21 22 23 24 25 26 27 28 29 30 31 32 33 34 35 36 37 38 39 40 41 42 43 44 45 46 47 48 49 50
000
ASUS43 KMPX 020610
RWRMN
WEATHER ROUNDUP FOR MINNESOTA
NATIONAL WEATHER SERVICE TWIN CITIES/CHANHASSEN MN
1200 AM CST FRI DEC 02 2016


NOTE: "FAIR" INDICATES FEW OR NO CLOUDS BELOW 12,000 FEET WITH NO
SIGNIFICANT WEATHER AND/OR OBSTRUCTIONS TO VISIBILITY. N/A MEANS
CURRENT SKY AND/OR WEATHER CONDITIONS ARE NOT AVAILABLE.

MNZ060>063-068>070-020700-
   Twin Cities Metro

CITY           SKY/WX    TMP DP  RH WIND       PRES   REMARKS
TWIN CITIES    CLOUDY    33  23  66 NW8       30.04R WCI  26
6HR MIN TEMP:  33; 6HR MAX TEMP:  37;

ST PAUL        CLOUDY    32  23  69 NW8       30.05R WCI  25
CRYSTAL        CLOUDY    32  21  64 N7        30.03R WCI  26
BLAINE         CLOUDY    34  25  69 NW8       30.03R WCI  27
LAKEVILLE      CLOUDY    32  25  74 NW7       30.02R WCI  26
EDEN PRAIRIE   CLOUDY    34  23  64 NW8       30.03R WCI  27
6HR MIN TEMP:  34; 6HR MAX TEMP:  38;

SOUTH ST PAUL  CLOUDY    33  23  67 N8        30.04R WCI  25
LAKE ELMO      CLOUDY    32  27  80 N7        30.04R WCI  26
$$
MNZ001>005-007-008-013>017-022>024-027-028-020700-
   Northwest Minnesota

CITY           SKY/WX    TMP DP  RH WIND       PRES   REMARKS
BEMIDJI        CLOUDY    24  20  87 NW6       30.05R WCI  17
HALLOCK        CLOUDY    28  25  86 N9        30.12R WCI  20
ROSEAU         CLOUDY    25  19  80 N7        30.09R WCI  17
WARROAD        CLOUDY    21  18  86 NW5       30.08R WCI  15
THIEF RVR FALL   N/A     26  21  81 N10       30.09R WCI  16
CROOKSTON      CLOUDY    28  21  74 N12       30.11R WCI  18
FOSSTON        CLOUDY    25  21  86 N6        30.07R WCI  18
DETROIT LAKES  CLOUDY    28  23  80 N7        30.06R WCI  21
MOORHEAD       CLOUDY    28  23  80 N7        30.11R WCI  21
PARK RAPIDS    CLOUDY    26  19  74 NW9       30.04R WCI  17
$$
MNZ006-009>011-018-025>026-020700-
   North Central Minnesota

CITY           SKY/WX    TMP DP  RH WIND       PRES   REMARKS
BAUDETTE       CLOUDY    25  20  81 NW7       30.05R WCI  17
FLAG ISLAND    CLOUDY    23  19  86 NW10      30.06R WCI  12
INTL FALLS     CLOUDY    25  20  81 NW10      30.03R WCI  15
6HR MIN TEMP:  25; 6HR MAX TEMP:  27;

WASKISH        CLOUDY    25  21  86 W8        30.06R WCI  16
BIG FORK       CLOUDY    27  21  80 NW5       30.03R WCI  21
LONGVILLE      CLOUDY    27  21  80 CALM      30.03R
GRAND RAPIDS   CLOUDY    26  22  84 NW10      30.03R WCI  16
CRANE LAKE     CLOUDY    25  21  86 N5        30.03R WCI  19
ORR            CLOUDY    27  21  80 NW5       29.99R WCI  21
COOK           CLOUDY    27  23  86 N5        30.01R WCI  21
$$
MNZ012-019>021-037-020700-
   Northeast Minnesota

CITY           SKY/WX    TMP DP  RH WIND       PRES   REMARKS
DULUTH         CLOUDY    28  22  78 N10       29.97R WCI  19
6HR MIN TEMP:  27; 6HR MAX TEMP:  28;

ELY            CLOUDY    25  21  86 N3        29.98R
HIBBING        CLOUDY    26  21  81 NW10      30.00R WCI  16
EVELETH        CLOUDY    28  23  83 NW6       30.00R WCI  21
DULUTH HARBOR  CLOUDY    32  23  69 NW7       30.02R WCI  26
TWO HARBORS    PTCLDY    30  25  80 NW5       29.96  WCI  25
SILVER BAY     CLOUDY    28  25  86 N3        29.96R
GRAND MARAIS     N/A     28  20  71 VRB5      29.97R WCI  23
G MARAIS ARPRT CLOUDY    19  16  86 NW10G18   29.90S WCI   8
$$
MNZ029>031-032-039>041-046>048-054>057-064-020700-
   West Central Minnesota

CITY           SKY/WX    TMP DP  RH WIND       PRES   REMARKS
FERGUS FALLS   CLOUDY    27  21  80 NW9       30.12R WCI  17
WHEATON        CLOUDY   N/A N/A N/A N7        30.11R
MORRIS         CLOUDY    30  25  80 N8        30.07R WCI  23
ALEXANDRIA     CLOUDY    29  23  78 NW9       30.05R WCI  20
ELBOW LAKE     CLOUDY    28  24  87 NW10      30.08R WCI  18
WADENA         CLOUDY    27  21  80 N8        30.04R WCI  18
GLENWOOD       CLOUDY    28  25  86 NW8       30.05R WCI  20
APPLETON       CLOUDY    32  27  80 N7        30.08R WCI  26
BENSON         CLOUDY    30  25  80 N8        30.07R WCI  23
ORTONVILLE     CLOUDY    30  27  86 CALM      30.08R
MADISON        CLOUDY    34  30  86 NW9       30.08R WCI  26
WILLMAR        CLOUDY    32  27  80 NW10      30.07R WCI  24
$$
MNZ033>034-036-042>043-049>051-058-059-020700-
   Central Minnesota

CITY           SKY/WX    TMP DP  RH WIND       PRES   REMARKS
ST CLOUD       CLOUDY    30  24  78 NW7       30.04R WCI  23
6HR MIN TEMP:  30; 6HR MAX TEMP:  33;

PAYNESVILLE    CLOUDY    30  24  79 NW6       30.06R WCI  24
AITKIN         CLOUDY    30  21  69 NW5       30.01R WCI  25
PINE RIVER     CLOUDY    27  21  80 N5        30.06R WCI  21
BRAINERD       CLOUDY    28  22  78 NW10      30.03R WCI  19
STAPLES        CLOUDY    27  21  80 N3        30.04R
LONG PRAIRIE   CLOUDY    28  23  80 W7        30.05R WCI  21
LITTLE FALLS   CLOUDY    30  21  69 NW5       30.05R WCI  25
LITCHFIELD     CLOUDY    32  25  74 N5        30.05R WCI  27
BUFFALO        CLOUDY    31  23  71 W8        30.05R WCI  24
MAPLE LAKE     CLOUDY    32  25  77 W6        30.06R WCI  26
$$
MNZ037-044-045-052-053-020700-
   East Central Minnesota

CITY           SKY/WX    TMP DP  RH WIND       PRES   REMARKS
PRINCETON      CLOUDY    32  23  69 W5        30.04R WCI  27
MORA           CLOUDY    30  23  74 CALM      30.04R
CAMBRIDGE      CLOUDY    34  21  60 N3        30.02R
RUSH CITY      CLOUDY    30  23  74 NW10      30.03R WCI  21
MOOSE LAKE     CLOUDY    30  21  69 NW5       29.99S WCI  25
HINCKLEY       CLOUDY    30  23  74 NW9       30.02R WCI  22
CLOQUET        CLOUDY    28  21  74 NW7       29.99R WCI  21
MCGREGOR       CLOUDY    28  23  80 NW5       30.01S WCI  23
$$
MNZ071>073-080-081-089-090-097-098-020700-
   Southwest Minnesota

CITY           SKY/WX    TMP DP  RH WIND       PRES   REMARKS
MONTEVIDEO     CLOUDY    30  28  93 N7        30.10R WCI  23
GRANITE FALLS  CLOUDY    32  28  86 NW7       30.09R WCI  26
CANBY          CLOUDY    32  27  82 CALM      30.09R
MARSHALL       CLOUDY    31  27  85 N13       30.08R WCI  21
REDWOOD FALLS  CLOUDY    31  24  75 NW10      30.07R WCI  22
OLIVIA         CLOUDY    32  28  86 NW7       30.06R WCI  26
PIPESTONE      CLOUDY    32  28  86 CALM      30.05R
WINDOM         CLOUDY    30  28  93 NW13      30.05R WCI  20
WORTHINGTON    CLOUDY    31  28  89 NW8       30.06R WCI  23
JACKSON        CLOUDY    32  28  86 NW6       30.06R WCI  26
TRACY          CLOUDY    31  28  86 NW9       30.07R WCI  23
SLAYTON        CLOUDY    29  27  90 N8        30.06R WCI  21
$$
MNZ065>067-074>077-082>085-091>093-020700-
   South Central Minnesota

CITY           SKY/WX    TMP DP  RH WIND       PRES   REMARKS
MANKATO        CLOUDY    33  29  85 NW10      30.05R WCI  25
NEW ULM        CLOUDY    32  27  80 NW9       30.05S WCI  24
ST JAMES       CLOUDY    32  28  86 NW9       30.07R WCI  24
FAIRMONT       CLOUDY    32  28  86 NW10      30.06R WCI  24
GLENCOE        CLOUDY    34  29  83 W7        30.04R WCI  27
FARIBAULT      CLOUDY    34  25  69 NW9       30.03R WCI  26
OWATONNA       CLOUDY    34  28  80 NW5       30.02R WCI  30
WASECA         CLOUDY    32  32 100 W6        30.04R WCI  26
ALBERT LEA     CLOUDY    37  36  93 W7        30.02R
$$
MNZ078>079-086>088-094>096-020700-
   Southeast Minnesota

CITY           SKY/WX    TMP DP  RH WIND       PRES   REMARKS
ROCHESTER      CLOUDY    34  30  85 NW10      30.00R WCI  26
6HR MIN TEMP:  34; 6HR MAX TEMP:  35; 6HR PCP: TRACE;

RED WING       CLOUDY    34  23  64 NW8       30.02R WCI  27
STANTON        CLOUDY    34  26  73 N5        30.01R WCI  30
DODGE CENTER   CLOUDY    34  28  80 NW8       30.01R WCI  27
WINONA         CLOUDY    36  30  80 NW10      30.02R
AUSTIN         CLOUDY    34  30  86 W9        30.01R WCI  26
PRESTON        CLOUDY    33  29  85 NW9       30.00R WCI  25
$$
ABBREVIATIONS USED IN REMARKS
   TC - TEMPERATURES IN CELSIUS
  WCI - WIND CHILL INDEX
   HX - HEAT INDEX
  VSB - VISIBILITY
$$




USA.gov is the U.S. government's official web portal to all federal, state and local government web resources and services.